Regional Weather Roundup
Issued by NWS

Home | Current Version | Previous Version | Graphics & Text | Print | Product List | Glossary On
Versions: 1 2 3 4 5 6 7 8 9 10 11 12 13 14 15 16 17 18 19 20 21 22 23 24 25 26 27 28 29 30 31 32 33 34 35 36 37 38 39 40 41 42 43 44 45 46 47 48 49
000
ASUS45 KBOU 020307
RWRCO

WEATHER ROUNDUP FOR COLORADO
NATIONAL WEATHER SERVICE DENVER/BOULDER CO
800 PM MST SUN MAR 01 2015

NOTE: "FAIR" INDICATES FEW OR NO CLOUDS BELOW 12000 FEET WITH NO
SIGNIFICANT WEATHER AND/OR OBSTRUCTIONS TO VISIBILITY.

COZ001>005-013-030-031-020400-
...NORTHWEST COLORADO...

CITY           SKY/WX    TMP DP  RH WIND       PRES   REMARKS
CRAIG          CLOUDY    31  25  78 CALM      30.07R
HAYDEN         CLOUDY    30  21  69 SE5       30.06S WCI  25
MEEKER         CLOUDY    31  28  89 CALM      30.06R
MOUNT WERNER   NOT AVBL
STEAMBOAT SPGS CLOUDY    28  22  79 CALM      30.07R
WALDEN         CLOUDY    23  18  80 E6        30.05S WCI  16
$$

COZ006>008-011-020400-
...WEST CENTRAL VALLEYS...

CITY           SKY/WX    TMP DP  RH WIND       PRES   REMARKS
GRAND JUNCTION CLOUDY    39  34  82 E3        30.06S
MONTROSE       FLURRIES  33  33 100 SE3       30.09S
EAGLE          CLOUDY    36  28  75 CALM      30.10R
RIFLE          CLOUDY    40  27  59 E5        30.06R
DELTA          CLOUDY    39  35  86 CALM      30.08F
NUCLA          LGT RAIN  34  32  93 CALM      30.10S
$$

COZ017>023-064>068-020400-
...SOUTHWEST COLORADO...

CITY           SKY/WX    TMP DP  RH WIND       PRES   REMARKS
DURANGO        CLOUDY    34  33  96 NE5       30.11R WCI  30
CORTEZ         CLOUDY    36  35  96 CALM      30.07R
PAGOSA SPRINGS CLOUDY    35  35 100 CALM      30.14S
TELLURIDE      LGT SNOW  33  32  94 CALM      30.10R
WOLF CREEK PAS CLOUDY    23  23 100 SW23G37   30.17S WCI   7
$$

COZ009-010-012-014-032>034-037-058>063-020400-
...CENTRAL COLORADO...

CITY           SKY/WX    TMP DP  RH WIND       PRES   REMARKS
ASPEN          FLURRIES  29  27  92 CALM      30.05F
BUENA VISTA    LGT SNOW  25  24  93 SE13      30.11R WCI  14
COPPER MTN     LGT SNOW  23  18  80 S18       30.08S WCI   9
BERTHOUD PASS  LGT SNOW  14   9  79 SW9       30.11R WCI   2
COTTONWOOD PAS SNOW      30  28  93 CALM      30.10S VSB 1/2
GUNNISON       CLOUDY    28  27  93 CALM      30.13S
KREMMLING      CLOUDY    32  23  69 CALM      30.08S
LEADVILLE      LGT SNOW  23  21  92 CALM      30.08R FOG
SALIDA         CLOUDY    23  20  88 SE16      30.20S WCI  10
SUNLIGHT       FLURRIES  25  23  93 CALM        N/A
WILKERSON PASS LGT SNOW  23  21  93 CALM      30.14S
$$

COZ069>075-020400-
...SAN LUIS VALLEY/SANGRE DE CRISTO MOUNTAINS...

CITY           SKY/WX    TMP DP  RH WIND       PRES   REMARKS
ALAMOSA        MOCLDY    28  26  92 CALM      30.11R
LA VETA PASS   LGT SNOW  30  30 100 S10G22    30.14S WCI  21
SAGUACHE       MIX PCPN  32  30  93 CALM      30.12S
$$

COZ035-036-038>040-020400-
...NORTHERN COLORADO FRONT RANGE...

CITY           SKY/WX    TMP DP  RH WIND       PRES   REMARKS
DENVER INTL AP CLOUDY    21  16  81 S6        30.22F WCI  13
DMNS CITY PARK   N/A     24  15  68 SE3       30.23S
AURORA         MOCLDY    22  16  78 SE7       30.22F WCI  13
FRONT RANGE AP NOT AVBL
ERIE MUNI ARPT CLOUDY    25  18  74 CALM      30.24S
BOULDER MUN AP CLOUDY    25  19  80 CALM      30.23S
CENTENNIAL     CLOUDY    22  15  75 SE3       30.20F
BROOMFIELD     CLOUDY    23  18  80 CALM      30.22
FORT COLLINS   PTCLDY    23  16  74 S7        30.25S WCI  15
LONGMONT       CLOUDY    27  18  69 CALM      30.26S
$$

COZ041-046-047-076>085-087-088-020400-
...PIKES PEAK/PALMER DIVIDE AND SOUTHERN FOOTHILLS...

CITY           SKY/WX    TMP DP  RH WIND       PRES   REMARKS
COLO. SPRINGS  LGT SNOW  22  20  92 S9        30.23S FOG     WCI  12
A. F. ACADEMY  CLOUDY    19  18  93 S12       30.19S WCI   7
ELLICOTT       NOT AVBL
FALCON         LGT SNOW  19  18  94 SE6       30.20S WCI  11
FORT CARSON    LGT SNOW  22  20  94 S8        30.23R FOG     WCI  12
LIMON          LGT SNOW  23  17  78 CALM      30.25S
MONUMENT HILL  LGT SNOW  19  16  86 SE10      30.15F WCI   8
TRINIDAD       CLOUDY    23  17  78 NE3       30.25S
$$

COZ042>045-048>051-090-091-020400-
...NORTHEAST COLORADO...

CITY           SKY/WX    TMP DP  RH WIND       PRES   REMARKS
GREELEY ARPT   PTCLDY    25  14  63 SW3       30.24F
AKRON          CLOUDY    27  18  69 CALM      30.26F
BURLINGTON     CLOUDY    29  20  69 S5        30.31R WCI  24
WRAY           PTCLDY    31  18  57 SE3       30.32R
STERLING       MOCLDY    27  19  74 CALM      30.28S
HOLYOKE        NOT AVBL
FORT MORGAN    MOCLDY    26  17  70 NE5       30.27S WCI  20
$$

COZ086-089-092>099-020400-
...SOUTHEAST COLORADO...

CITY           SKY/WX    TMP DP  RH WIND       PRES   REMARKS
PUEBLO         CLOUDY    26  21  81 S6        30.28F WCI  19
LA JUNTA       CLOUDY    29  21  72 SW5       30.31R WCI  24
LAMAR          MOCLDY    26  23  88 SE5       30.32R WCI  20
SPRINGFIELD      N/A     24  20  84 N5        30.29S WCI  18
$$



USA.gov is the U.S. government's official web portal to all federal, state and local government web resources and services.